{"data":{"norad_id":55284,"epoch":"2026-05-25T03:40:58.480032Z","epoch_age_seconds":55561,"freshness":"FRESH","line1":"1 55284U 23010R   26145.15345463  .00187856  00000+0  15163-1 0  9990","line2":"2 55284  69.9987 211.4879 0004222 262.6315  97.4364 14.98762271184228","mean_motion":14.98762271,"eccentricity":0.0004222,"inclination_deg":69.9987,"raan_deg":211.4879,"arg_perigee_deg":262.6315,"mean_anomaly_deg":97.4364,"bstar":0.015163,"rev_number":18422,"period_min":96.079280074165,"perigee_km":567.78564264161,"apogee_km":573.65325702785,"semimajor_km":6948.8564498347,"source":"CELESTRAK","updated_at":"2026-05-25T13:38:17.733474Z"}}